DW4212 Weather Reports


Display with metric or nautical units.
time (UTC)temp
F
wind
direction
speed
MPH
gust
MPH
rain 1hr
in
rain 24hr
in
rain mn
in
humidity
%
barometer
mb
20260906072942 70 29 0.0 1.0 0.00 0.00 0.00 49 1027.0
20260906071951 69 29 0.0 3.0 0.00 0.00 0.00 50 1026.9
20260906070918 68 29 0.0 0.0 0.00 0.00 0.00 51 1026.9
20260906065926 68 29 0.0 0.0 0.00 0.00 0.00 51 1026.8
20260906064915 68 29 0.0 0.0 0.00 0.00 0.00 50 1026.8
20260906063924 69 29 0.0 0.0 0.00 0.00 0.00 51 1026.7
20260906062926 69 29 0.0 0.0 0.00 0.00 0.00 50 1026.7
20260906061919 69 29 0.0 0.0 0.00 0.00 0.00 48 1026.6
20260906060928 69 29 0.0 0.0 0.00 0.00 0.00 47 1026.6
20260906054912 70 29 0.0 0.0 0.00 0.00 0.00 46 1026.3
20260906053918 70 29 0.0 0.0 0.00 0.00 0.00 47 1026.3
20260906052920 70 29 0.0 0.0 0.00 0.00 0.00 47 1026.2
20260906051928 70 29 0.0 0.0 0.00 0.00 0.00 47 1026.2
20260906050918 70 29 0.0 0.0 0.00 0.00 0.00 47 1026.1
20260906045919 70 29 0.0 0.0 0.00 0.00 0.00 47 1026.1
20260906044915 70 29 0.0 0.0 0.00 0.00 0.00 47 1026.0
20260906043925 70 29 0.0 0.0 0.00 0.00 0.00 47 1026.0
20260906042929 70 29 0.0 0.0 0.00 0.00 0.00 47 1026.0
20260906041918 70 29 0.0 0.0 0.00 0.00 0.00 47 1026.1
20260906040927 71 29 0.0 0.0 0.00 0.00 0.00 46 1026.2
20260906035927 71 29 0.0 0.0 0.00 0.00 0.00 46 1026.2
20260906034919 72 29 0.0 0.0 0.00 0.00 0.00 45 1026.2
20260906033928 72 29 0.0 0.0 0.00 0.00 0.00 45 1026.4
20260906032929 72 29 0.0 0.0 0.00 0.00 0.00 45 1026.5
20260906031917 72 29 0.0 0.0 0.00 0.00 0.00 45 1026.5
20260906030912 71 29 0.0 0.0 0.00 0.00 0.00 45 1026.6
20260906025930 71 29 0.0 0.0 0.00 0.00 0.00 45 1026.4
20260906024919 71 29 0.0 0.0 0.00 0.00 0.00 46 1026.2
20260906023929 71 29 0.0 0.0 0.00 0.00 0.00 46 1026.2
20260906021929 72 29 0.0 0.0 0.00 0.00 0.00 45 1026.3
20260906020918 72 29 0.0 0.0 0.00 0.00 0.00 45 1026.4
20260906015926 72 29 0.0 0.0 0.00 0.00 0.00 45 1026.4
20260906014919 73 29 0.0 0.0 0.00 0.00 0.00 44 1026.4
20260906013927 73 29 0.0 0.0 0.00 0.00 0.00 43 1026.3
20260906012929 75 29 0.0 0.0 0.00 0.00 0.00 41 1026.5
20260906011923 75 29 0.0 0.0 0.00 0.00 0.00 40 1026.4
20260906010913 75 29 0.0 0.0 0.00 0.00 0.00 40 1026.6
20260906005914 75 29 0.0 0.0 0.00 0.00 0.00 40 1026.6
20260906004922 75 29 0.0 0.0 0.00 0.00 0.00 40 1026.6
20260906003930 75 29 0.0 0.0 0.00 0.00 0.00 40 1026.6
20260906002915 75 29 0.0 0.0 0.00 0.00 0.00 40 1026.6
20260906001924 75 29 0.0 0.0 0.00 0.00 0.00 41 1026.6
20260906000913 75 29 0.0 0.0 0.00 0.00 0.00 41 1026.6
20260905235914 75 29 0.0 0.0 0.00 0.00 0.00 41 1026.6
20260905234922 75 29 0.0 3.0 0.00 0.00 0.00 41 1026.5
20260905233929 75 29 0.0 1.0 0.00 0.00 0.00 41 1026.6
20260905232914 75 29 0.0 3.0 0.00 0.00 0.00 41 1026.7
20260905231922 74 32 0.0 4.0 0.00 0.00 0.00 42 1026.8
20260905230930 74 5 0.0 3.0 0.00 0.00 0.00 42 1026.8
20260905225930 74 355 0.0 0.0 0.00 0.00 0.00 42 1026.8
20260905224918 74 355 0.0 0.0 0.00 0.00 0.00 42 1026.9
20260905223926 74 355 0.0 0.0 0.00 0.00 0.00 41 1026.9
20260905222912 75 355 0.0 0.0 0.00 0.00 0.00 41 1026.9
20260905221920 75 355 0.0 0.0 0.00 0.00 0.00 40 1026.9
20260905220928 75 355 0.0 0.0 0.00 0.00 0.00 40 1026.9
20260905215929 76 355 0.0 0.0 0.00 0.00 0.00 40 1026.9
20260905214916 76 355 0.0 0.0 0.00 0.00 0.00 39 1027.0
20260905213929 77 355 0.0 0.0 0.00 0.00 0.00 38 1027.0
20260905212927 77 355 0.0 0.0 0.00 0.00 0.00 37 1027.1
20260905211912 78 355 0.0 0.0 0.00 0.00 0.00 37 1027.0
20260905210920 78 355 0.0 0.0 0.00 0.00 0.00 37 1027.0
20260905205922 78 355 0.0 0.0 0.00 0.00 0.00 37 1026.9
20260905204911 78 355 0.0 1.0 0.00 0.00 0.00 37 1026.8
20260905203921 78 338 0.0 6.0 0.00 0.00 0.00 36 1026.7
20260905202922 79 355 0.0 5.0 0.00 0.00 0.00 36 1026.6
20260905201929 79 355 1.0 8.0 0.00 0.00 0.00 36 1026.6
20260905200914 79 21 1.0 6.0 0.00 0.00 0.00 36 1026.4
20260905194915 80 24 1.0 6.0 0.00 0.00 0.00 35 1026.1
20260905193922 81 17 0.0 5.0 0.00 0.00 0.00 34 1026.0
20260905192922 81 355 0.0 4.0 0.00 0.00 0.00 34 1025.8
20260905191911 81 351 1.0 6.0 0.00 0.00 0.00 34 1025.8
20260905190922 82 22 0.0 4.0 0.00 0.00 0.00 33 1025.8
20260905185923 82 324 0.0 5.0 0.00 0.00 0.00 33 1025.8
20260905184910 83 327 0.0 6.0 0.00 0.00 0.00 32 1025.6
20260905183919 83 20 1.0 8.0 0.00 0.00 0.00 32 1025.7
20260905182924 84 325 0.0 8.0 0.00 0.00 0.00 31 1025.6
20260905181912 84 321 2.0 8.0 0.00 0.00 0.00 30 1025.6
20260905180919 85 336 0.0 6.0 0.00 0.00 0.00 30 1025.5
20260905175920 86 26 1.0 9.0 0.00 0.00 0.00 29 1025.5
20260905174913 86 344 1.0 5.0 0.00 0.00 0.00 28 1025.4
20260905173921 87 53 1.0 6.0 0.00 0.00 0.00 27 1025.3
20260905172923 87 304 1.0 8.0 0.00 0.00 0.00 27 1025.3
20260905170930 89 5 0.0 5.0 0.00 0.00 0.00 25 1025.3
20260905165929 89 346 0.0 9.0 0.00 0.00 0.00 25 1025.3
20260905164914 89 17 1.0 6.0 0.00 0.00 0.00 25 1025.3
20260905163925 90 28 0.0 2.0 0.00 0.00 0.00 25 1025.1
20260905162930 90 355 0.0 5.0 0.00 0.00 0.00 24 1025.1
20260905161920 90 355 1.0 5.0 0.00 0.00 0.00 24 1025.2
20260905160927 90 355 0.0 3.0 0.00 0.00 0.00 24 1025.3
20260905155929 90 355 0.0 4.0 0.00 0.00 0.00 24 1025.2
20260905154921 90 355 0.0 5.0 0.00 0.00 0.00 24 1025.3
20260905153930 90 5 1.0 5.0 0.00 0.00 0.00 24 1025.3
20260905152911 91 333 0.0 4.0 0.00 0.00 0.00 24 1025.3
20260905151920 91 336 1.0 6.0 0.00 0.00 0.00 23 1025.4
20260905150911 92 259 0.0 3.0 0.00 0.00 0.00 23 1025.3
20260905145913 92 251 0.0 3.0 0.00 0.00 0.00 21 1025.2
20260905144921 93 251 0.0 1.0 0.00 0.00 0.00 21 1025.4
20260905143913 92 251 0.0 5.0 0.00 0.00 0.00 23 1025.4
20260905142915 92 246 0.0 2.0 0.00 0.00 0.00 23 1025.5
20260905141925 92 246 0.0 4.0 0.00 0.00 0.00 24 1025.6
20260905140912 92 246 1.0 6.0 0.00 0.00 0.00 24 1025.8
20260905135919 92 250 2.0 7.0 0.00 0.00 0.00 23 1025.9
20260905135008 92 275 1.0 7.0 0.00 0.00 0.00 23 1026.1
20260905133912 92 191 0.0 1.0 0.00 0.00 0.00 24 1026.2
20260905132913 92 191 0.0 2.0 0.00 0.00 0.00 23 1026.2
20260905131943 91 190 0.0 4.0 0.00 0.00 0.00 25 1026.2
20260905130935 91 196 0.0 2.0 0.00 0.00 0.00 24 1026.3
20260905125932 91 207 0.0 3.0 0.00 0.00 0.00 25 1026.3
20260905124941 91 237 1.0 6.0 0.00 0.00 0.00 24 1026.5
20260905123949 91 218 0.0 6.0 0.00 0.00 0.00 25 1026.5
20260905122951 90 215 0.0 4.0 0.00 0.00 0.00 26 1026.5
20260905121940 90 225 1.0 6.0 0.00 0.00 0.00 26 1026.6
20260905120932 89 166 0.0 7.0 0.00 0.00 0.00 28 1026.7
20260905115950 90 207 0.0 6.0 0.00 0.00 0.00 27 1026.7
20260905114936 90 192 1.0 7.0 0.00 0.00 0.00 26 1027.0
20260905113946 91 188 1.0 8.0 0.00 0.00 0.00 25 1027.0
20260905112945 92 180 0.0 8.0 0.00 0.00 0.00 26 1027.0
20260905111931 92 183 1.0 8.0 0.00 0.00 0.00 26 1026.9
20260905110943 91 185 1.0 9.0 0.00 0.00 0.00 27 1026.9
20260905105945 91 183 2.0 7.0 0.00 0.00 0.00 26 1027.0
20260905104931 91 180 1.0 7.0 0.00 0.00 0.00 27 1027.0
20260905102951 89 175 0.0 5.0 0.00 0.00 0.00 28 1027.0
20260905101941 89 175 0.0 8.0 0.00 0.00 0.00 28 1027.1
20260905100950 88 158 0.0 5.0 0.00 0.00 0.00 28 1027.1
20260905095931 87 158 2.0 7.0 0.00 0.00 0.00 28 1027.1
20260905094940 86 146 0.0 6.0 0.00 0.00 0.00 30 1027.2
20260905093948 85 23 0.0 5.0 0.00 0.00 0.00 31 1027.1
20260905092948 85 22 0.0 0.0 0.00 0.00 0.00 32 1026.9
20260905091939 85 22 0.0 1.0 0.00 0.00 0.00 31 1026.8
20260905090950 85 22 0.0 1.0 0.00 0.00 0.00 31 1026.8
20260905085950 84 22 0.0 1.0 0.00 0.00 0.00 31 1026.7
20260905084938 83 19 0.0 1.0 0.00 0.00 0.00 32 1026.6
20260905083947 83 18 0.0 2.0 0.00 0.00 0.00 32 1026.6
20260905082931 82 17 0.0 1.0 0.00 0.00 0.00 33 1026.7
20260905081940 81 17 0.0 0.0 0.00 0.00 0.00 34 1026.7
20260905080949 82 17 0.0 2.0 0.00 0.00 0.00 33 1026.7
20260905075951 82 17 0.0 0.0 0.00 0.00 0.00 33 1026.6
20260905074939 81 17 0.0 0.0 0.00 0.00 0.00 33 1026.6
20260905073946 80 17 0.0 0.0 0.00 0.00 0.00 35 1026.5